CW9414 Weather Reports


time (UTC)temp
F
wind
direction
speed
knots
gust
knots
rain 1hr
in
rain 24hr
in
rain mn
in
humidity
%
barometer
mb
20260903195449 81 18 0.0 0.0 0.00 0.00 0.42 80 1009.6
20260903194452 81 18 0.0 0.9 0.00 0.00 0.41 79 1009.9
20260903193449 81 18 0.0 0.0 0.00 0.00 0.39 77 1009.9
20260903192452 81 18 0.0 0.0 0.00 0.00 0.37 76 1010.6
20260903191449 82 19 0.0 1.7 0.00 0.00 0.37 74 1009.9
20260903190449 84 19 0.0 0.9 0.00 0.00 0.35 71 1009.9
20260903185452 87 170 0.0 1.7 0.00 0.00 0.17 66 1009.8
20260903184449 88 171 0.0 4.3 0.00 0.00 0.00 62 1009.7
20260903183449 90 139 0.0 0.9 0.00 0.00 0.00 62 1009.7
20260903182449 91 139 0.0 0.9 0.00 0.00 0.00 60 1009.7
20260903181449 91 139 0.0 3.5 0.00 0.00 0.00 59 1009.7
20260903180452 92 142 0.0 0.0 0.00 0.00 0.00 59 1009.7
20260903175449 92 142 0.9 1.7 0.00 0.00 0.00 60 1009.9
20260903174448 92 142 0.0 2.6 0.00 0.00 0.00 60 1009.7
20260903173452 93 142 2.6 4.3 0.00 0.00 0.00 60 1009.7
20260903172448 93 140 0.9 7.8 0.00 0.00 0.00 60 1009.8
20260903171448 92 185 0.0 3.5 0.00 0.00 0.00 61 1010.2
20260903170449 92 187 1.7 4.3 0.00 0.00 0.00 62 1010.2
20260903165448 91 190 1.7 4.3 0.00 0.00 0.00 64 1010.3
20260903164448 90 235 1.7 2.6 0.00 0.00 0.00 68 1010.3
20260903163448 89 235 0.9 2.6 0.00 0.00 0.00 69 1010.3
20260903162448 88 235 0.9 3.5 0.00 0.00 0.00 69 1010.4
20260903161448 87 225 1.7 3.5 0.00 0.00 0.00 72 1010.3
20260903160449 87 227 0.9 2.6 0.00 0.00 0.00 74 1010.3
20260903155448 87 229 0.9 2.6 0.00 0.00 0.00 75 1010.2
20260903154449 87 230 1.7 4.3 0.00 0.00 0.00 75 1010.3
20260903153448 86 172 0.0 4.3 0.00 0.00 0.00 76 1010.3
20260903152449 86 184 0.9 3.5 0.00 0.00 0.00 77 1010.4
20260903151448 86 184 0.0 4.3 0.00 0.00 0.00 78 1010.6
20260903150449 85 156 0.0 3.5 0.00 0.00 0.00 79 1010.6
20260903145449 85 156 0.0 0.9 0.00 0.00 0.00 80 1010.7
20260903144448 84 156 0.0 1.7 0.00 0.00 0.00 81 1010.6
20260903143449 84 156 0.0 2.6 0.00 0.00 0.00 82 1010.6
20260903142451 84 156 0.0 1.7 0.00 0.00 0.00 82 1010.5
20260903141448 83 156 0.9 3.5 0.00 0.00 0.00 83 1010.3
20260903140449 83 164 0.0 2.6 0.00 0.00 0.00 84 1010.3
20260903135449 82 164 0.0 1.7 0.00 0.00 0.00 84 1010.3
20260903134449 81 173 0.0 0.0 0.00 0.00 0.00 84 1010.3
20260903133448 81 173 0.0 0.0 0.00 0.00 0.00 84 1010.3
20260903132452 81 173 0.0 0.0 0.00 0.00 0.00 84 1010.2
20260903131451 81 173 0.0 0.0 0.00 0.00 0.00 84 1010.2
20260903130449 81 173 0.0 0.0 0.00 0.00 0.00 84 1010.2
20260903125448 81 173 0.0 0.0 0.00 0.00 0.00 84 1009.8
20260903124448 81 173 0.0 0.0 0.00 0.00 0.00 84 1009.6
20260903123448 81 173 0.0 0.0 0.00 0.00 0.00 83 1009.6
20260903122449 81 173 0.0 0.9 0.00 0.00 0.00 82 1009.5
20260903121448 81 173 0.0 1.7 0.00 0.00 0.00 82 1009.4
20260903120451 81 173 0.0 3.5 0.00 0.00 0.00 82 1009.4
20260903115448 81 173 0.0 1.7 0.00 0.00 0.00 81 1009.6
20260903114451 81 173 0.0 1.7 0.00 0.00 0.00 81 1009.6
20260903113448 81 173 0.0 2.6 0.00 0.00 0.00 80 1009.6
20260903112448 82 175 0.0 3.5 0.00 0.00 0.00 80 1009.5
20260903111448 82 144 1.7 3.5 0.00 0.00 0.00 80 1009.5
20260903110448 82 168 0.0 4.3 0.00 0.00 0.00 81 1009.5
20260903105448 83 154 0.0 2.6 0.00 0.00 0.00 81 1009.3
20260903104448 83 154 0.0 4.3 0.00 0.00 0.00 81 1009.2
20260903103448 83 154 0.0 1.7 0.00 0.00 0.00 81 1009.2
20260903102448 83 154 0.0 1.7 0.00 0.00 0.00 81 1009.1
20260903101448 83 154 0.0 3.5 0.00 0.00 0.00 81 1009.1
20260903100448 83 156 0.0 1.7 0.00 0.00 0.00 81 1009.1
20260903095448 83 156 0.0 2.6 0.00 0.00 0.00 81 1009.1
20260903094448 83 156 0.0 2.6 0.00 0.00 0.00 81 1009.2
20260903093448 83 157 0.0 3.5 0.00 0.00 0.00 81 1009.2
20260903092448 83 154 0.0 2.6 0.00 0.00 0.00 81 1009.2
20260903091448 83 154 0.0 1.7 0.00 0.00 0.00 81 1009.1
20260903090448 83 154 0.0 2.6 0.00 0.00 0.00 80 1009.1
20260903085448 83 154 0.9 2.6 0.00 0.00 0.00 80 1009.2
20260903084448 83 154 0.0 0.9 0.00 0.00 0.00 80 1009.1
20260903083448 83 154 0.0 3.5 0.00 0.00 0.00 80 1009.1
20260903082448 83 154 0.0 3.5 0.00 0.00 0.00 80 1009.1
20260903081448 83 154 0.0 3.5 0.00 0.00 0.00 80 1008.9
20260903080449 83 153 0.0 2.6 0.00 0.00 0.00 80 1008.9
20260903075448 83 152 0.0 4.3 0.00 0.00 0.00 79 1009.1
20260903074451 83 150 1.7 2.6 0.00 0.00 0.00 79 1009.1
20260903073451 83 149 0.0 4.3 0.00 0.00 0.00 79 1009.1
20260903072448 83 149 0.0 3.5 0.00 0.00 0.00 79 1009.1
20260903071448 83 149 0.0 3.5 0.00 0.00 0.00 79 1009.2
20260903070448 84 149 0.0 4.3 0.00 0.00 0.00 79 1009.2
20260903065448 84 148 0.9 4.3 0.00 0.00 0.00 79 1009.6
20260903064447 84 146 0.9 3.5 0.00 0.00 0.00 79 1009.7
20260903063448 84 146 0.0 3.5 0.00 0.00 0.00 79 1009.7
20260903062448 84 146 0.0 1.7 0.00 0.00 0.00 78 1009.7
20260903061448 84 146 0.0 0.9 0.00 0.00 0.00 79 1009.8
20260903060448 84 146 0.0 1.7 0.00 0.00 0.00 78 1009.8
20260903055451 84 146 0.0 1.7 0.00 0.00 0.00 78 1010.1
20260903054448 84 146 0.0 3.5 0.00 0.00 0.00 77 1010.2
20260903053448 85 146 0.0 1.7 0.00 0.00 0.00 77 1010.2
20260903052448 85 146 0.0 0.9 0.00 0.00 0.00 77 1010.7
20260903051451 85 146 0.0 0.0 0.00 0.00 0.00 77 1010.7
20260903050448 85 146 0.0 0.0 0.00 0.00 0.00 76 1010.7
20260903045448 85 146 0.0 1.7 0.00 0.00 0.00 77 1010.7
20260903044448 85 146 0.0 0.9 0.00 0.00 0.00 77 1010.6
20260903043448 85 146 0.0 0.9 0.00 0.00 0.00 76 1010.6
20260903042448 85 146 0.0 2.6 0.00 0.00 0.00 76 1010.5
20260903041447 85 146 0.0 0.0 0.00 0.00 0.00 75 1010.2
20260903040447 85 146 0.0 1.7 0.00 0.00 0.00 75 1010.2
20260903035448 85 146 0.0 3.5 0.00 0.00 0.00 75 1010.2
20260903034447 85 155 0.0 5.2 0.00 0.00 0.00 74 1010.1
20260903033448 85 156 1.7 3.5 0.00 0.00 0.00 74 1010.1
20260903032447 86 156 0.0 1.7 0.00 0.00 0.00 73 1009.8
20260903031451 86 156 0.0 0.9 0.00 0.00 0.00 72 1009.7
20260903030447 86 156 0.9 6.1 0.00 0.00 0.00 72 1009.7
20260903025448 86 169 1.7 3.5 0.00 0.00 0.00 70 1009.4
20260903024447 86 170 0.0 7.8 0.00 0.00 0.00 69 1009.2
20260903023447 86 159 2.6 5.2 0.00 0.00 0.00 68 1009.2
20260903022447 87 159 0.0 5.2 0.00 0.00 0.00 66 1009.2
20260903021448 87 169 0.9 6.1 0.00 0.00 0.00 65 1008.7
20260903020447 87 186 0.0 3.5 0.00 0.00 0.00 63 1008.7
20260903015448 87 189 0.0 8.7 0.00 0.00 0.00 62 1008.6
20260903014447 88 134 1.7 3.5 0.00 0.00 0.00 60 1008.4
20260903013451 88 150 1.7 7.8 0.00 0.00 0.00 59 1008.4
20260903012450 89 157 1.7 5.2 0.00 0.00 0.00 58 1008.3
20260903011447 89 144 0.9 9.6 0.00 0.00 0.00 57 1008.1
20260903010450 90 154 0.0 9.6 0.00 0.00 0.00 55 1008.1
20260903005448 90 170 1.7 7.0 0.00 0.00 0.00 53 1008.0
20260903004450 91 178 6.1 6.1 0.00 0.00 0.00 52 1007.7
20260903003448 91 190 3.5 7.0 0.00 0.00 0.00 50 1007.7
20260903002448 91 140 4.3 7.8 0.00 0.00 0.00 49 1007.4
20260903001448 92 209 2.6 4.3 0.00 0.00 0.00 49 1007.2
20260903000448 92 140 2.6 10.4 0.00 0.00 0.00 49 1007.2
20260902235448 93 173 3.5 7.8 0.00 0.00 0.00 48 1007.2
20260902234448 93 136 6.1 8.7 0.00 0.00 0.00 47 1007.3
20260902233447 94 82 2.6 9.6 0.00 0.00 0.00 47 1007.3
20260902232451 94 160 2.6 5.2 0.00 0.00 0.00 47 1007.2
20260902231447 95 160 0.0 10.4 0.00 0.00 0.00 48 1007.2
20260902230447 95 218 4.3 7.8 0.00 0.00 0.00 47 1007.2
20260902225447 96 126 0.0 6.1 0.00 0.00 0.00 46 1007.2
20260902224450 96 115 2.6 8.7 0.00 0.00 0.00 46 1007.2
20260902223451 97 152 0.9 6.1 0.00 0.00 0.00 45 1007.2
20260902222450 97 201 2.6 5.2 0.00 0.00 0.00 44 1007.2
20260902221448 98 148 1.7 5.2 0.00 0.00 0.00 42 1007.1
20260902220448 98 205 2.6 4.3 0.00 0.00 0.00 41 1007.2
20260902215450 99 178 0.9 5.2 0.00 0.00 0.00 41 1007.2
20260902214447 99 169 0.9 4.3 0.00 0.00 0.00 41 1007.3
20260902213447 99 165 1.7 4.3 0.00 0.00 0.00 42 1007.3
20260902212448 98 137 0.9 4.3 0.00 0.00 0.00 41 1007.7
20260902211447 98 165 1.7 7.0 0.00 0.00 0.00 40 1007.7
20260902210447 98 196 0.0 5.2 0.00 0.00 0.00 40 1007.7
20260902205447 99 141 2.6 11.3 0.00 0.00 0.00 39 1007.7
20260902204448 98 175 2.6 8.7 0.00 0.00 0.00 41 1007.9
20260902203448 98 157 2.6 7.8 0.00 0.00 0.00 40 1007.9
20260902202450 98 188 4.3 5.2 0.00 0.00 0.00 41 1008.0
20260902201447 98 200 0.0 7.8 0.00 0.00 0.00 41 1008.3
20260902200451 98 172 1.7 6.1 0.00 0.00 0.00 40 1008.3